CFG2367 ZJSY-VTBS

Flight info

Callsign CFG2367
Flight time N/A
Altitude 40000
Route KAGUK2Q KAGUK G221 BUNTA A1 PAPRA/N0466F400 A1 UBL Y20 RAMEI W42 PAKRI Y13 RUKSA EASTE1C
Aircraft A339/H-SADE1E2E3GHIJ3J5M1P2RWXY/LB2D1

Departure

Time 2026-04-28 14:18
Airport Sanya Phoenix International Airport (ZJSY)

Arrival

Time N/A
Airport Suvarnabhumi Airport (VTBS)
Time Latitude Longitude Altitude Speed Heading
2026-04-28 14:09 18.30472 109.40066 87 ft 0 kts 83°
2026-04-28 14:11 18.30472 109.40065 87 ft 0 kts 83°
2026-04-28 14:11 18.30471 109.40060 87 ft 2 kts 83°
2026-04-28 14:11 18.30469 109.40044 87 ft 2 kts 83°
2026-04-28 14:11 18.30467 109.40029 87 ft 2 kts 83°
2026-04-28 14:12 18.30466 109.40013 86 ft 2 kts 83°
2026-04-28 14:12 18.30466 109.39997 86 ft 2 kts 111°
2026-04-28 14:12 18.30474 109.39984 86 ft 2 kts 140°
2026-04-28 14:12 18.30487 109.39977 86 ft 1 kts 167°
2026-04-28 14:13 18.30493 109.39975 86 ft 1 kts 172°
2026-04-28 14:13 18.30494 109.39975 86 ft 0 kts 172°
2026-04-28 14:15 18.30492 109.39975 86 ft 1 kts 172°
2026-04-28 14:15 18.30470 109.39978 86 ft 5 kts 172°
2026-04-28 14:15 18.30392 109.39973 84 ft 12 kts 219°
2026-04-28 14:15 18.30364 109.39874 83 ft 14 kts 261°
2026-04-28 14:16 18.30349 109.39768 83 ft 15 kts 263°
2026-04-28 14:16 18.30335 109.39656 83 ft 15 kts 256°
2026-04-28 14:16 18.30279 109.39619 82 ft 12 kts 179°
2026-04-28 14:16 18.30165 109.39635 80 ft 18 kts 172°
2026-04-28 14:17 18.30098 109.39671 79 ft 8 kts 103°
2026-04-28 14:17 18.30111 109.39835 79 ft 49 kts 82°
2026-04-28 14:17 18.30189 109.40420 86 ft 110 kts 81°
2026-04-28 14:17 18.30316 109.41393 143 ft 154 kts 84°
2026-04-28 14:18 18.30471 109.42498 724 ft 151 kts 84°
2026-04-28 14:18 18.30577 109.43570 1302 ft 147 kts 104°
2026-04-28 14:18 18.30131 109.44488 1827 ft 143 kts 140°
2026-04-28 14:18 18.29225 109.44965 2126 ft 154 kts 173°
2026-04-28 14:19 18.28124 109.44766 2396 ft 173 kts 208°
2026-04-28 14:19 18.27253 109.43792 2680 ft 194 kts 234°
2026-04-28 14:19 18.26539 109.42509 2981 ft 213 kts 238°
2026-04-28 14:19 18.25803 109.41096 3375 ft 227 kts 238°
2026-04-28 14:20 18.25040 109.39629 4014 ft 231 kts 239°
2026-04-28 14:20 18.24268 109.38166 4710 ft 231 kts 240°
2026-04-28 14:20 18.23488 109.36698 5425 ft 231 kts 241°
2026-04-28 14:20 18.22712 109.35249 6122 ft 231 kts 242°
2026-04-28 14:21 18.21919 109.33765 6786 ft 232 kts 242°
2026-04-28 14:21 18.21126 109.32278 7434 ft 235 kts 242°
2026-04-28 14:21 18.20327 109.30784 8087 ft 237 kts 241°
2026-04-28 14:21 18.19508 109.29288 8736 ft 239 kts 237°
2026-04-28 14:22 18.18481 109.27914 9357 ft 243 kts 226°
2026-04-28 14:22 18.17202 109.26656 9726 ft 259 kts 223°
2026-04-28 14:22 18.15803 109.25368 10036 ft 277 kts 222°
2026-04-28 14:22 18.14295 109.23991 10345 ft 294 kts 222°
2026-04-28 14:23 18.12719 109.22549 10753 ft 307 kts 222°
2026-04-28 14:23 18.11086 109.21050 11421 ft 311 kts 222°
2026-04-28 14:23 18.09456 109.19553 12121 ft 313 kts 223°
2026-04-28 14:23 18.07801 109.18076 12779 ft 316 kts 217°
2026-04-28 14:24 18.05795 109.17035 13443 ft 323 kts 199°
2026-04-28 14:24 18.03567 109.16675 14093 ft 329 kts 185°
2026-04-28 14:24 18.01270 109.16625 14723 ft 332 kts 184°
2026-04-28 14:24 17.98729 109.16595 15392 ft 336 kts 184°
2026-04-28 14:25 17.93990 109.16524 16596 ft 342 kts 185°
2026-04-28 14:25 17.88899 109.16459 17864 ft 348 kts 184°
2026-04-28 14:25 17.83833 109.16470 19048 ft 354 kts 184°
2026-04-28 14:25 17.78880 109.16483 20118 ft 361 kts 184°